Location: La Savane
(18.0962°N, 63.0646°W)
Time: 16:17:41
(UTC+00:00)

Delta 7925 Rocket - Pass Details

Date: 29 October 2020
Orbit: 645 x 1648 km, 26.3° (Epoch: 27 November)

Event Time Altitude Azimuth Distance (km) Brightness Sun altitude
Rises 22:06:30 0° 245° (WSW) 4,138 9.3 -6.7°
Reaches altitude 10° 22:09:41 10° 243° (WSW) 3,007 8.1 -7.4°
Maximum altitude 22:16:54 78° 158° (SSE) 946 4.0 -9.1°
Enters shadow 22:21:58 13° 73° (ENE) 2,164 5.2 -10.3°
